Stip, Macedonia

04:28 AM CET на 26 Февруари, 2018 (GMT +0100)
Skopje | | Change Station

Elev 784 ft 41.97 °N, 21.65 °E | Updated 28 minutes ago

Снег
Снег
23 °F
Feels Like 16 °F
С
6
Ветер Променлив Ветер from СЗ

Денес
High -- | Low -- °F
--% Chance of Precip.
Вчера
High -- | Low -- °F
Precip. -- инчи
Притисок 29.80 инчи
Видливост 0.2 миљи
Облаци Претежно облачно 1000 ft
Заоблачено 3300 ft
Лични чувство за темп. со ветерот 16 °F
Точка на kондензација 21 °F
Влажност 93%
Дожд 0.00 инчи
Височина на снег Not available.
6:11 AM 5:17 PM
Вториот квартал, 80% visible
METAR LWSK 260300Z 31005KT 0300 R34/2000 SN BKN010 OVC033 M05/M06 Q1009 R99/5///95 NOSIG
Притисок 29.80 инчи
Видливост 0.2 миљи
Облаци Претежно облачно 1000 ft
Заоблачено 3300 ft
Лични чувство за темп. со ветерот 16 °F
Точка на kондензација 21 °F
Влажност 93%
Дожд 0.00 инчи
Височина на снег Not available.
6:11 AM 5:17 PM
Вториот квартал, 80% visible
METAR LWSK 260300Z 31005KT 0300 R34/2000 SN BKN010 OVC033 M05/M06 Q1009 R99/5///95 NOSIG

Get Severe Weather Alerts

Thanks for signing up!

Be on the lookout for a verification email in your inbox.

You'll start receiving the daily forecast at 6 AM.

×

10-Day Weather Forecast

×

Almanac

Астрономијата

Feb. 26, 2018 Изгревање Заоѓање
Актуелно време
Граѓанскиот самрак
Наутички самрак
Астрономски самрак
Месечината
Должина на видливата светлина
Должина на денот
Tomorrow will be .
, % of the Moon is Illuminated

Екстреми денес

Country Highs Country Lows

Community

WunderPhotos

Category 6

Welcome to Category 6. This is the collective home for Weather Underground's featured writeups by Dr. Jeff Masters (right), Bob Henson (left), Chris Burt, and other regular contributors.

Nearby

Квалитетот на воздухот

  Квалитетот на воздухот AQ индекс Загадувач
Not available.

Височина на снег

Station Depth Висина

Earthquake Activity

Град Distance Mag. Time & Date
Minimum magnitude displayed is 2.5.

Coastal Water Temperatures

Место Температура

Stations

Nearby Weather Stations

Локација на станицата Темп. Лични чувство за темп. со ветерот Точка на kондензација Влажност Ветер Precip. Elev Ажурирани Тип